Bar Harbor, ME

12:57 PM EDT on October 15, 2019 (GMT -0400)
Hancock County-Bar Harbor

Weather History for KBHB - September, 2019

Change the Weather History Date:

Sunday, September 22, 2019

  Actual Average Record
Temperature  
Mean Temperature 62 °F -  
Max Temperature 72 °F 67 °F 82 °F (1965)
Min Temperature 51 °F 49 °F 32 °F (1950)
Degree Days  
Heating Degree Days 4    
Growing Degree Days 12 (Base 50)    
Moisture  
Dew Point 57 °F    
Average Humidity 91    
Maximum Humidity 100    
Minimum Humidity 71    
Precipitation  
Precipitation 0.00 in - - ()
Sea Level Pressure  
Sea Level Pressure 30.07 in    
Wind  
Wind Speed 4 mph (SSW)    
Max Wind Speed 18 mph    
Max Gust Speed -    
Visibility 7 miles    
Events Fog    
Averages and records for this station are not official NWS values.
T = Trace of Precipitation, MM = Missing Value Source: NWS Daily Summary

Daily Weather History Graph

Daily Weather History Graph

Search for Another Location

Airport or City:

Astronomy

Sep. 22, 2019 Rise Set
Actual Time 6:20 AM EDT 6:31 PM EDT
Civil Twilight 5:51 AM EDT 7:00 PM EDT
Nautical Twilight 5:17 AM EDT 7:34 PM EDT
Astronomical Twilight 4:42 AM EDT 8:09 PM EDT
Moon 11:46 PM EDT (9/22) 2:38 PM EDT (9/22)
Length of Visible Light 13h 09m
Length of Day
12h 11m
Last Quarter, 44% of the Moon is Illuminated
Sep 22
Last Quarter
Sep 28
New
Oct 5
First Quarter
Oct 13
Full
Oct 21
Last Quarter

Hourly Weather History & Observations

Time (EDT) Temp. Dew Point Humidity Pressure Visibility Wind Dir Wind Speed Gust Speed Precip Events Conditions
12:56 AM 55.0 °F 54.0 °F 96% 30.17 in 10.0 mi Calm Calm - N/A   Clear
1:56 AM 54.0 °F 53.1 °F 97% 30.18 in 3.0 mi Calm Calm - N/A   Clear
2:56 AM 55.9 °F 54.0 °F 93% 30.16 in 10.0 mi Calm Calm - N/A   Partly Cloudy
3:09 AM 55.4 °F 53.6 °F 94% 30.15 in 1.8 mi Calm Calm - N/A   Clear
3:19 AM 55.4 °F 55.4 °F 100% 30.15 in 4.0 mi Calm Calm - N/A   Clear
3:56 AM 57.9 °F 55.9 °F 93% 30.15 in 10.0 mi SW 4.6 mph - N/A   Clear
4:56 AM 54.0 °F 53.1 °F 97% 30.16 in 9.0 mi Calm Calm - N/A   Clear
5:52 AM 51.8 °F 51.8 °F 100% 30.15 in 1.8 mi Calm Calm - N/A   Clear
5:56 AM 52.0 °F 52.0 °F 100% 30.16 in 1.8 mi Calm Calm - N/A   Clear
6:01 AM 51.8 °F 51.8 °F 100% 30.15 in 5.0 mi Calm Calm - N/A   Clear
6:32 AM 51.8 °F 51.8 °F 100% 30.14 in 0.8 mi Calm Calm - N/A   Clear
6:34 AM 51.8 °F 51.8 °F 100% 30.14 in 0.2 mi Calm Calm - N/A Fog Fog
6:45 AM 53.6 °F 53.6 °F 100% 30.14 in 0.8 mi Calm Calm - N/A   Clear
6:47 AM 53.6 °F 53.6 °F 100% 30.14 in 1.5 mi Calm Calm - N/A   Clear
6:50 AM 53.6 °F 53.6 °F 100% 30.14 in 4.0 mi Calm Calm - N/A   Clear
6:56 AM 54.0 °F 54.0 °F 100% 30.14 in 7.0 mi Calm Calm - N/A   Clear
7:56 AM 59.0 °F 57.0 °F 93% 30.14 in 10.0 mi South 3.5 mph - N/A   Clear
8:56 AM 64.9 °F 59.0 °F 81% 30.13 in 10.0 mi SSW 12.7 mph - N/A   Clear
9:56 AM 66.0 °F 60.1 °F 81% 30.11 in 10.0 mi SSW 11.5 mph - N/A   Clear
10:56 AM 69.1 °F 61.0 °F 75% 30.09 in 10.0 mi SSW 13.8 mph - N/A   Clear
11:56 AM 69.1 °F 62.1 °F 78% 30.09 in 10.0 mi SSW 12.7 mph - N/A   Clear
12:56 PM 70.0 °F 62.1 °F 76% 30.06 in 10.0 mi SSW 12.7 mph - N/A   Clear
1:56 PM 72.0 °F 62.1 °F 71% 30.03 in 10.0 mi SSW 12.7 mph - N/A   Clear
2:56 PM 66.9 °F 60.1 °F 79% 30.00 in 10.0 mi SSW 13.8 mph - N/A   Clear
3:56 PM 66.0 °F 60.1 °F 81% 29.98 in 10.0 mi SSW 18.4 mph - N/A   Clear
4:56 PM 64.9 °F 60.1 °F 84% 29.97 in 10.0 mi SW 11.5 mph - N/A   Clear
5:56 PM 63.0 °F 59.0 °F 87% 29.96 in 10.0 mi SSW 12.7 mph - N/A   Clear
6:56 PM 61.0 °F 59.0 °F 93% 29.95 in 10.0 mi SSW 11.5 mph - N/A   Clear
7:56 PM 62.1 °F 59.0 °F 90% 29.94 in 10.0 mi SSW 10.4 mph - N/A   Clear
8:56 PM 62.1 °F 60.1 °F 93% 29.93 in 10.0 mi SSW 9.2 mph - N/A   Clear
9:56 PM 62.1 °F 59.0 °F 90% 29.91 in 10.0 mi SSW 8.1 mph - N/A   Clear
10:56 PM 62.1 °F 59.0 °F 90% 29.88 in 10.0 mi SSW 11.5 mph - N/A   Clear
11:56 PM 62.1 °F 59.0 °F 90% 29.86 in 10.0 mi SSW 10.4 mph - N/A   Clear